{"data":{"norad_id":43017,"epoch":"2026-09-19T21:27:36.394272Z","epoch_age_seconds":66672,"freshness":"FRESH","line1":"1 43017U 17073E   26262.89417123  .00006111  00000+0  26021-3 0  9998","line2":"2 43017  97.4551 128.1747 0147209   1.9522 358.2253 15.13974742479719","mean_motion":15.13974742,"eccentricity":0.0147209,"inclination_deg":97.4551,"raan_deg":128.1747,"arg_perigee_deg":1.9522,"mean_anomaly_deg":358.2253,"bstar":0.00026021,"rev_number":47971,"period_min":95.11387211769,"perigee_km":422.48587568934,"apogee_km":625.69994831249,"semimajor_km":6902.2299120009,"source":"CELESTRAK","updated_at":"2026-09-20T09:00:45.234567Z"}}